Flag for Germany Weather past 2 weeks in Jena, Thuringia, Germany

Now
54 °F

Passing clouds.


Feels Like: 51 °F
Forecast: 51 / 66 °F
Wind: 9 mph from Southwest

Location: Erfurt-Bindersleben

Current Time: Jul 29, 2015 at 6:59:07 AM

Latest Report: Jul 29, 2015 at 6:20 AM


Visibility: N/A

Pressure: 29.80 "Hg

Humidity: 72%

Dew point: 45 °F

Location of JenaLocation

Historic Weather in Jena — Graph

°F

Jena temperature yesterday

Maximum temperature yesterday: 68 °F (at 3:50 PM)
Minimum temperature yesterday: 55 °F (at 3:50 AM)
Average temperature yesterday: 60 °F

Past Weeks' High & Low Weather Summary

 TemperatureHumidityPressure
High91 °F (Jul 17, 3:50 PM)100% (Jul 19, 4:50 AM)30.12 "Hg (Jul 19, 4:50 AM)
Low50 °F (Jul 26, 5:50 AM)23% (Jul 17, 3:50 PM)29.62 "Hg (Jul 25, 4:50 AM)
Average68 °F67%29.92 "Hg
* Reported Jul 14 5:20 AM — Jul 29 5:50 AM, Jena, Weather by CustomWeather, © 2015

Note: Actual official high and low records may vary slightly from our data, if they occured in-between our weather recording intervals... More about our weather records

Advertising

Jena weather history for previous 24 hours

 ConditionsComfort  
Time TempWeatherWind HumidityBarometerVisibility
5:50 AM
Wed, Jul 29
52 °FPassing clouds.9 mph77%29.80 "HgN/A
5:20 AM54 °FPassing clouds.10 mph67%29.80 "HgN/A
4:50 AM54 °FPassing clouds.9 mph67%29.80 "HgN/A
4:20 AM55 °FPassing clouds.10 mph63%29.80 "HgN/A
3:50 AM57 °FPassing clouds.14 mph55%29.80 "HgN/A
3:20 AM55 °FClear.10 mph67%29.80 "Hg10 mi
2:50 AM55 °FClear.10 mph67%29.80 "Hg10 mi
2:20 AM57 °FClear.8 mph59%29.80 "Hg10 mi
1:50 AM57 °FClear.8 mph63%29.80 "Hg10 mi
1:20 AM57 °FClear.5 mph63%29.80 "Hg10 mi
12:50 AM57 °FClear.6 mph59%29.80 "Hg10 mi
11:20 PM
Tue, Jul 28
59 °FClear.8 mph55%29.80 "Hg10 mi
10:50 PM59 °FClear.7 mph55%29.80 "Hg10 mi
10:20 PM61 °FClear.9 mph52%29.77 "Hg10 mi
9:50 PM59 °FSunny.7 mph55%29.77 "Hg10 mi
9:20 PM59 °FSunny.8 mph55%29.77 "Hg10 mi
8:50 PM61 °FSunny.10 mph52%29.77 "Hg10 mi
8:20 PM63 °FSunny.13 mph45%29.77 "Hg10 mi
7:50 PM63 °FSunny.16 mph45%29.77 "Hg10 mi
7:20 PM64 °FSunny.17 mph43%29.74 "Hg10 mi
6:50 PM64 °FSunny.20 mph43%29.74 "Hg10 mi
6:20 PM64 °FBroken clouds.23 mph43%29.74 "HgN/A
5:50 PM66 °FBroken clouds.18 mph43%29.74 "HgN/A
5:20 PM66 °FScattered clouds.20 mph37%29.74 "HgN/A
4:50 PM66 °FScattered clouds.20 mph40%29.74 "HgN/A
4:20 PM68 °FScattered clouds.17 mph43%29.74 "HgN/A
3:50 PM68 °FScattered clouds.16 mph40%29.74 "HgN/A
3:20 PM66 °FScattered clouds.17 mph40%29.74 "HgN/A
2:50 PM64 °FScattered clouds.18 mph49%29.74 "HgN/A
2:20 PM64 °FScattered clouds.18 mph46%29.74 "HgN/A
1:50 PM63 °FScattered clouds.21 mph52%29.74 "HgN/A
1:20 PM63 °FPartly sunny.20 mph49%29.74 "HgN/A
12:50 PM61 °FPartly sunny.17 mph52%29.74 "HgN/A
12:20 PM63 °FPartly sunny.18 mph49%29.74 "HgN/A
11:50 AM61 °FPartly sunny.16 mph48%29.74 "HgN/A
11:20 AM64 °FScattered clouds.21 mph52%29.74 "HgN/A
10:50 AM61 °FScattered clouds.21 mph52%29.74 "HgN/A
10:20 AM61 °FScattered clouds.21 mph52%29.74 "HgN/A
9:50 AM59 °FScattered clouds.18 mph55%29.74 "HgN/A
9:20 AM59 °FPassing clouds.18 mph59%29.71 "HgN/A
8:50 AM59 °FPassing clouds.18 mph63%29.71 "HgN/A
8:20 AM57 °FPassing clouds.18 mph67%29.71 "HgN/A
7:50 AM55 °FSunny.20 mph72%29.71 "Hg10 mi
7:20 AM57 °FPassing clouds.16 mph72%29.68 "HgN/A
6:50 AM55 °FScattered clouds.14 mph82%29.68 "HgN/A
6:20 AM55 °FPassing clouds.15 mph82%29.68 "HgN/A
Weather by CustomWeather, © 2015

See weather overviewHow to use our weather pages